Location: Daouli
(14.8671°N, 3.2030°W)
Time: 17:27:15
(UTC+00:00)

EO 1 Delta rocket - Pass Details

Date: 29 October 2020
Orbit: 696 x 1793 km, 95.4° (Epoch: 23 November)

Event Time Altitude Azimuth Distance (km) Brightness Sun altitude
Exits shadow 19:30:01 24° 355° (N) 1,428 5.3 -25.7°
Maximum altitude 19:32:44 64° 280° (W) 802 4.2 -26.3°
Drops below altitude 10° 19:37:45 10° 198° (SSW) 2,381 6.8 -27.6°
Sets 19:40:18 0° 196° (SSW) 3,429 7.7 -28.2°
